Flag for Moldova Weather past 2 weeks in Bălți, Moldova

Now
68 °F

Mild.


Feels Like: 68 °F
Forecast: 51 / 76 °F
Wind: 21 mph from Northwest

Location: Baltsi-Leadoveni - The North of Moldova

Current Time: May 29, 2015 at 2:39:49 PM

Latest Report: May 29, 2015 at 2:00 PM


Visibility: N/A

Pressure: 29.86 "Hg

Humidity: 40%

Dew point: 43 °F

Location of BălțiLocation

Historic Weather in Bălți — Graph

°F

Bălți temperature yesterday

Maximum temperature yesterday: 55 °F (at 11:00 AM)
Minimum temperature yesterday: 50 °F (at 12:00 AM)
Average temperature yesterday: 53 °F

Past Weeks' High & Low Weather Summary

 TemperatureHumidityPressure
High86 °F (May 24, 4:00 PM)100% (May 27, 4:00 AM)30.12 "Hg (May 27, 4:00 AM)
Low48 °F (May 15, 4:30 AM)26% (May 22, 2:30 PM)29.59 "Hg (May 14, 6:30 PM)
Average65 °F57%29.91 "Hg
* Reported May 14 1:00 PM — May 29 1:00 PM, Bălți, Weather by CustomWeather, © 2015

Note: Actual official high and low records may vary slightly from our data, if they occured in-between our weather recording intervals... More about our weather records

Advertising

Bălți weather history for previous 24 hours

 ConditionsComfort  
Time TempWeatherWind HumidityBarometerVisibility
1:00 PM
Fri, May 29
66 °FMild.21 mph46%29.86 "HgN/A
12:30 PM66 °FMild.25 mph40%29.86 "HgN/A
12:00 PM66 °FMild.24 mph43%29.86 "HgN/A
11:30 AM64 °FMild.24 mph46%29.86 "HgN/A
11:00 AM63 °FMild.22 mph49%29.86 "HgN/A
10:30 AM64 °FMild.20 mph49%29.86 "HgN/A
10:00 AM63 °FMild.18 mph52%29.86 "HgN/A
9:00 AM59 °FPassing clouds.18 mph59%29.86 "HgN/A
8:00 AM57 °FCool.20 mph67%29.86 "HgN/A
7:30 AM54 °FCool.16 mph72%29.86 "HgN/A
7:00 AM54 °FCool.17 mph72%29.86 "HgN/A
6:00 AM54 °FCool.18 mph72%29.86 "HgN/A
5:30 AM54 °FCool.17 mph72%29.86 "HgN/A
5:00 AM54 °FCool.18 mph72%29.86 "HgN/A
4:30 AM54 °FCool.18 mph72%29.86 "HgN/A
4:00 AM54 °FCool.17 mph72%29.86 "HgN/A
3:30 AM54 °FCool.16 mph72%29.86 "HgN/A
2:00 AM54 °FCool.16 mph72%29.86 "HgN/A
1:00 AM54 °FCool.17 mph72%29.86 "HgN/A
12:30 AM54 °FCool.16 mph72%29.86 "HgN/A
12:00 AM54 °FCool.15 mph72%29.89 "HgN/A
11:00 PM
Thu, May 28
54 °FCool.15 mph72%29.89 "HgN/A
10:00 PM54 °FCool.15 mph77%29.89 "HgN/A
9:00 PM54 °FCool.17 mph72%29.86 "HgN/A
8:00 PM54 °FCool.17 mph72%29.86 "HgN/A
7:30 PM54 °FCool.18 mph72%29.86 "HgN/A
7:00 PM54 °FCool.18 mph72%29.86 "HgN/A
6:00 PM55 °FOvercast.21 mph67%29.86 "HgN/A
5:30 PM55 °FOvercast.22 mph67%29.86 "HgN/A
5:00 PM55 °FOvercast.21 mph67%29.86 "HgN/A
4:30 PM55 °FOvercast.20 mph72%29.86 "HgN/A
4:00 PM55 °FCool.22 mph72%29.86 "HgN/A
3:00 PM55 °FCool.22 mph72%29.86 "HgN/A
2:30 PM55 °FCool.20 mph72%29.86 "HgN/A
2:00 PM54 °FCool.20 mph72%29.86 "HgN/A
Weather by CustomWeather, © 2015

See weather overviewHow to use our weather pages